Regional Weather Roundup
Issued by NWS

Home | Current Version | Previous Version | Text Only | Print | Product List | Glossary Off
Versions: 1 2 3 4 5 6 7 8 9 10 11 12 13 14 15 16 17 18 19 20 21 22 23 24 25 26 27 28 29 30 31 32 33 34 35 36 37 38 39 40 41 42 43 44 45 46 47 48 49 50

000
ASUS45 KPSR 090710
RWRAZ

ARIZONA HOURLY REGIONAL WEATHER ROUNDUP
NATIONAL WEATHER SERVICE PHOENIX AZ
1200 AM MST TUE FEB 09 2016

NOTE: FAIR INDICATES FEW OR NO CLOUDS BELOW 12,000 FEET WITH NO
SIGNIFICANT WEATHER AND/OR OBSTRUCTIONS TO VISIBILITY.

AZZ001>003-036-090800-
NORTHWEST ARIZONA

CITY           SKY/WX    TMP DP  RH WIND       PRES   REMARKS
BULLHEAD CITY  CLEAR     66  27  22 N26G35    30.24S
KINGMAN        CLEAR     52  23  32 NE6       30.36R
$$

AZZ004>008-015-016-018-090800-
NORTH CENTRAL ARIZONA

CITY           SKY/WX    TMP DP  RH WIND       PRES   REMARKS
GRAND CANYON   CLEAR     25  21  85 SW5       30.48F WCI  19
WILLIAMS       CLEAR     28  19  69 SE6       30.50F WCI  22
PRESCOTT       CLEAR     35  22  58 SW5       30.39R WCI  31
FLAGSTAFF      CLEAR     39  18  42 NE14      30.46S WCI  31
PAYSON         CLEAR     50  18  27 CALM      30.37S
PAGE           CLEAR     36  24  62 CALM      30.47S
$$

AZZ009>014-017-090800-
NORTHEAST ARIZONA

CITY           SKY/WX    TMP DP  RH WIND       PRES   REMARKS
WINSLOW        CLEAR     31  21  66 CALM      30.45R
SAINT JOHNS    CLEAR     32  20  61 S7        30.42S WCI  26
WINDOW ROCK    CLEAR     27   0  31 CALM      30.45F
SHOW LOW       CLEAR     32  18  55 CALM      30.45F
$$

AZZ023-090800-
GREATER PHOENIX AREA

CITY           SKY/WX    TMP DP  RH WIND       PRES   REMARKS
PHOENIX        CLEAR     66  24  20 SE5       30.16R
BUCKEYE        CLEAR     57  27  30 N3        30.18R
LUKE AFB       CLEAR     64  25  22 NE2       30.15R
DEER VALLEY    CLEAR     59  24  26 E5        30.18R
SCOTTSDALE     CLEAR     71  17  12 NW6       30.19R
MESA-GATEWAY   CLEAR     55  30  38 SE6       30.18R
$$

AZZ027-028-090800-
SOUTHWEST MARICOPA COUNTY AND PINAL COUNTY

CITY           SKY/WX    TMP DP  RH WIND       PRES   REMARKS
CASA GRANDE    CLEAR     64  25  22 E12       30.17S
GILA BEND      FAIR      53  26  35 SE9       30.14R
$$

AZZ503-504-507>509-090800-
SOUTHEAST ARIZONA

CITY           SKY/WX    TMP DP  RH WIND       PRES   REMARKS
TUCSON         CLEAR     54  22  28 N6        30.21S
DAVIS-MONTHAN  CLEAR     54  21  27 E8        30.19S
NOGALES        CLEAR     47  19  33 CALM      30.24S
SIERRA VISTA   PTCLDY    48  17  29 E2        30.30S
DOUGLAS        PTCLDY    41  16  36 W7        30.30R
SAFFORD        CLEAR     48  23  37 SE7       30.29R
$$

AZZ020-021-025-026-031-090800-
SOUTHWEST ARIZONA

CITY           SKY/WX    TMP DP  RH WIND       PRES   REMARKS
YUMA           CLEAR     71  22  15 N13       30.13S
$$

CAZ031-033-041-043-047-048-061-090800-
SOUTHERN CALIFORNIA

CITY           SKY/WX    TMP DP  RH WIND       PRES   REMARKS
DOWNTOWN L.A.  CLEAR     65  35  33 E3        30.13R
L.A. AIRPORT   CLEAR     68  30  24 E3        30.13S
SAN DIEGO      CLEAR     64  34  32 CALM      30.13R
BURBANK        CLEAR     62  27  26 CALM      30.14S
ONTARIO        CLEAR     61  29  29 N3        30.16S
RIVERSIDE      CLEAR     67  24  19 NE6       30.18S
PALM SPRINGS   CLEAR     69  25  19 W8        30.22S
EL CENTRO NAS  CLEAR     56  22  26 W10       30.17S
IMPERIAL       CLEAR     54  28  36 W6        30.15S
BLYTHE         CLEAR     60  25  26 NW5       30.18R
NEEDLES        CLEAR     67  27  22 N20       30.24R
$$

NVZ020-UTZ003-090800-
SOUTHERN NEVADA-UTAH

CITY           SKY/WX    TMP DP  RH WIND       PRES   REMARKS
LAS VEGAS      CLEAR     59  27  29 NE6       30.33S
SALT LAKE CITY PTCLDY    28  25  88 CALM      30.63S FOG
$$

NMZ009-TXZ055-090800-
NEW MEXICO-WEST TEXAS

CITY           SKY/WX    TMP DP  RH WIND       PRES   REMARKS
ALBUQUERQUE    CLOUDY    34  20  56 SE3       30.40S
EL PASO        CLEAR     44  13  28 NE3       30.35S
$$


........................KEY........................
SKY/WX - SKY CONDITION/WEATHER
TMP    - TEMPERATURE IN FAHRENHEIT
DP     - DEW POINT IN FAHRENHEIT
RH     - RELATIVE HUMIDITY IN PERCENT
WIND   - DIRECTION AND SPEED IN MILES PER HOUR (MPH)
VRB    - VARIABLE WIND DIRECTION
PRES   - MEAN SEA LEVEL PRESSURE IN INCHES OF MERCURY
         F - FALLING PRESSURE   R - RISING PRESSURE
         S - STEADY PRESSURE
VSB    - VISIBILITY IN MILES
HX     - HEAT INDEX IN FAHRENHEIT
WCI    - WIND CHILL INDEX IN FAHRENHEIT
TC     - TEMPERATURE IN CELSIUS WHICH IS ALSO KNOWN AS
         TEMPERATURE IN CENTIGRADE
AFB    - AIR FORCE BASE
         LUKE AFB IS LUKE AIR FORCE BASE
         DAVIS-MONTHAN IS DAVIS-MONTHAN AIR FORCE BASE
NAS    - NAVAL AIR STATION
         EL CENTRO NAS IS EL CENTRO NAVAL AIR STATION
N/A    - NOT AVAILABLE




USA.gov is the U.S. government's official web portal to all federal, state and local government web resources and services.